Temperature
4 4 4 5 5 6 6 6 6 7 9 9 9 9 10 10 11 11 11 12 13 14 16 15 15 14 14 14 14 14 14 13 13 13 12 12 12 12 12 12 12 12 12 12
3 3 5 5 6 6 5 5 6 7 8 9 8 9 10 10 10 11 12 12 13 14 15 15 14 14 14 14 14 14 14 14 14 14 14 13 13 13 13 13 12 12 12 12
3 4 6 6 5 6 6 5 6 6 7 8 8 8 9 10 11 11 12 13 14 14 15 15 15 15 15 14 15 15 15 14 14 14 13 13 12 12 12 12 12 12 12 12
3 4 5 5 5 6 5 6 6 7 6 6 7 7 8 9 10 10 11 12 13 14 15 15 15 15 15 16 16 15 15 15 15 14 14 13 13 13 14 14 13 13 12 12
3 4 5 5 5 6 5 6 6 6 6 5 6 6 7 8 9 10 10 12 13 14 14 15 15 16 16 16 16 16 15 15 15 14 14 14 14 14 14 14 13 13 13 12
3 4 4 5 6 6 6 5 5 5 5 5 6 6 6 7 9 10 10 12 13 14 14 15 15 16 16 16 16 16 15 15 15 14 14 14 14 14 14 14 14 13 13 13
2 3 4 5 5 5 5 4 4 4 4 5 6 6 7 8 8 10 10 11 13 13 14 14 15 15 15 15 16 15 15 15 15 15 14 14 14 14 14 14 14 14 14 13
1 2 4 4 4 4 5 4 4 4 5 5 6 6 7 8 8 9 10 11 12 12 13 14 14 15 15 15 16 16 16 16 15 15 15 15 15 14 14 14 14 14 15 14
1 2 3 4 4 4 4 4 5 4 4 4 5 6 7 8 8 8 9 10 11 12 12 13 14 14 15 15 16 16 16 16 16 16 15 15 15 15 15 15 14 14 14 14
1 1 2 3 4 4 4 4 4 4 4 5 5 6 6 7 8 8 8 8 10 11 11 12 13 14 14 15 15 16 16 16 16 16 16 16 15 15 15 15 14 14 15 14
1 1 1 2 2 3 3 3 3 3 3 4 5 6 7 7 7 7 8 8 9 9 10 11 12 13 14 14 15 15 16 16 16 16 16 16 16 16 15 15 15 14 14 14
1 0 0 1 2 3 3 3 2 2 2 2 3 5 7 6 6 6 7 8 8 9 9 10 11 12 13 13 14 14 15 15 16 16 16 16 16 15 15 15 15 14 14 14
1 0 0 1 2 2 2 2 2 2 2 2 3 5 7 6 6 6 6 7 7 8 8 9 10 10 11 12 13 14 14 15 15 15 15 15 15 15 15 15 15 14 14 13
2 -0 -0 0 1 0 1 2 2 2 2 2 3 4 5 6 5 5 6 6 6 7 7 8 9 9 10 11 12 13 14 14 15 15 15 15 15 15 15 15 14 14 14 13
0 -0 -1 -0 1 1 1 2 2 2 2 2 3 4 5 5 5 5 5 6 6 6 6 7 8 8 9 10 11 12 13 14 14 14 15 15 15 15 14 14 14 13 13 13
-1 -1 -1 0 1 1 2 2 3 3 3 3 3 3 4 5 5 5 5 5 5 5 5 6 7 7 8 9 10 11 12 13 13 14 14 14 14 14 14 14 13 13 13 12
-2 -2 -1 -0 0 1 1 2 3 3 3 3 3 4 4 4 4 4 5 5 5 5 5 5 6 7 7 8 9 10 11 12 13 13 14 14 14 13 13 13 13 12 12 12
-2 -2 -1 -1 -1 -1 1 2 3 3 3 3 3 3 3 4 4 4 4 4 4 4 5 5 5 6 7 8 9 10 11 12 12 13 13 13 13 13 13 12 12 12 12 12
-1 -1 -1 -1 -1 -1 1 2 2 2 2 2 2 3 3 3 4 4 4 4 4 4 4 5 5 6 7 8 8 9 10 11 11 12 12 12 12 12 12 12 12 12 12 11
-1 -1 -1 -2 -1 -0 1 2 2 2 1 2 2 2 2 2 2 3 4 4 4 4 4 5 5 6 7 7 8 8 9 10 10 11 12 12 12 12 12 12 12 12 11 11
-2 -2 -2 -2 -1 -0 1 1 2 1 1 2 2 2 2 2 2 3 3 3 3 4 4 4 5 6 6 7 7 8 9 9 10 10 11 11 11 11 11 11 11 11 11 10
-2 -2 -3 -2 -2 -1 1 1 1 1 2 2 2 2 2 2 2 2 2 3 3 3 3 4 4 5 6 6 6 7 8 9 9 10 10 10 10 10 10 10 10 10 10 10
-2 -2 -2 -2 -0 0 1 1 2 2 2 2 2 2 2 2 2 2 2 2 2 3 3 3 4 4 5 5 6 7 7 8 8 9 9 10 10 10 10 10 10 9 9 9
-3 -2 -2 -2 -2 -1 1 1 2 2 2 2 2 2 2 1 1 1 2 2 2 2 3 3 3 4 4 5 5 6 7 7 8 8 8 9 9 9 9 9 9 9 9 9
-3 -3 -3 -2 -1 -1 0 1 2 2 1 1 1 1 1 1 1 1 1 1 2 2 2 3 3 3 4 4 5 5 6 6 7 7 7 8 8 8 8 8 8 8 8 9
-3 -3 -2 -1 -1 -1 -1 1 1 1 1 0 0 0 1 0 0 1 1 1 1 1 2 2 2 3 3 4 4 5 5 6 6 6 7 7 7 7 7 7 7 7 7 8
Wind_Speed
1 2 6 8 11 9 7 8 10 10 7 7 12 14 11 9 9 10 10 11 12 15 14 11 12 13 14 16 18 19 19 19 16 15 14 13 13 11 10 10 14 16 16 16
1 6 9 7 7 8 8 9 10 9 7 7 10 14 12 11 12 12 12 12 13 13 10 10 12 13 16 19 20 21 21 20 19 17 15 11 10 8 8 8 11 16 16 16
6 5 4 5 6 7 9 9 8 8 9 6 7 10 11 10 10 11 11 11 13 15 14 13 13 15 17 19 22 21 23 21 21 17 11 9 7 6 7 10 11 13 16 17
6 6 5 6 7 7 8 6 8 8 6 5 3 7 8 8 9 11 11 11 12 14 14 13 13 15 17 20 20 22 22 21 21 19 16 17 14 13 14 11 11 11 14 15
5 4 4 6 7 6 5 4 6 8 6 6 5 6 8 5 9 11 11 11 11 11 13 14 14 16 17 18 18 20 21 22 21 20 20 19 16 13 8 8 11 11 11 13
6 4 3 4 4 5 3 3 5 4 2 7 8 7 8 5 9 9 10 10 10 9 10 12 12 12 14 14 15 17 19 21 21 22 21 21 20 15 12 12 13 12 10 11
6 4 3 2 2 1 2 2 1 1 4 7 5 7 9 6 6 9 9 8 8 7 7 9 9 10 12 13 15 16 19 21 22 23 23 23 21 19 18 16 15 13 11 11
4 6 3 1 3 3 4 5 4 3 4 3 3 8 7 6 6 6 7 7 6 6 6 8 9 10 12 13 15 17 19 20 21 23 23 22 20 17 15 15 13 15 13 14
2 6 4 4 2 3 2 4 3 2 3 3 5 6 7 4 4 4 5 5 6 6 6 6 7 8 10 11 14 17 19 19 20 22 22 21 20 19 17 15 14 13 11 11
2 5 5 4 2 2 3 1 1 2 2 4 5 5 4 4 5 6 6 7 7 6 5 5 5 7 8 9 11 13 17 19 19 20 20 17 20 20 17 15 16 15 14 12
2 3 5 3 2 3 1 1 1 2 3 3 4 5 2 2 4 6 7 6 7 7 6 6 5 5 6 7 8 10 12 14 15 17 18 18 18 19 17 16 16 15 13 14
2 2 4 6 5 3 4 4 3 2 4 3 4 7 2 2 5 6 8 8 7 7 6 5 4 4 2 4 6 8 10 11 13 14 16 17 17 16 17 17 16 15 15 14
1 1 3 5 3 2 1 3 4 3 3 5 5 8 4 6 8 8 8 9 9 8 7 5 4 4 3 3 4 6 8 10 11 11 13 15 15 16 17 17 15 15 15 14
3 3 5 7 6 3 6 8 6 6 6 7 10 12 12 11 11 11 10 10 9 8 6 6 5 5 4 3 4 4 5 7 9 10 12 14 16 16 16 15 15 15 15 15
1 4 6 10 10 8 10 13 11 11 11 10 12 13 15 12 10 10 9 9 9 8 8 7 7 6 5 4 4 3 4 5 7 9 11 13 13 13 13 13 13 14 14 14
2 4 4 8 10 11 14 15 14 15 13 14 14 15 11 10 8 8 8 8 8 8 8 8 7 7 6 5 5 4 3 4 5 8 10 10 10 11 12 13 13 13 13 13
3 3 3 6 6 7 10 11 12 10 8 8 12 11 8 9 9 8 7 7 8 9 9 8 7 7 7 6 6 5 4 3 5 7 7 9 10 11 11 11 12 13 13 12
6 4 3 4 3 8 8 4 6 9 9 8 8 8 8 10 9 7 5 6 7 8 9 8 8 8 7 6 6 5 3 3 5 5 6 7 9 10 10 10 12 12 11 11
10 6 4 3 5 9 7 4 4 6 6 6 7 8 8 9 6 5 5 5 6 7 8 8 7 8 7 6 6 4 2 3 4 5 6 7 9 10 10 11 11 10 10 10
6 6 5 4 4 7 6 4 2 2 5 4 5 7 7 5 4 6 6 7 8 8 8 8 7 6 6 6 5 3 2 2 4 5 6 7 9 10 11 11 9 7 8 9
4 5 8 7 7 8 7 4 1 4 6 4 3 5 5 4 6 8 8 7 7 8 8 8 7 6 6 6 4 3 2 4 3 3 4 6 8 9 9 8 7 8 8 9
7 6 7 6 7 9 4 2 4 6 4 4 4 5 6 7 8 8 8 8 7 8 8 8 7 7 6 5 4 3 4 3 2 3 4 6 7 7 7 9 8 8 9 9
8 9 6 9 9 5 4 6 6 4 4 5 5 6 6 8 9 9 8 8 7 7 8 7 7 7 6 5 4 4 4 2 2 3 4 6 7 7 8 9 9 8 8 8
6 5 5 7 9 9 8 8 7 6 7 7 7 8 7 8 9 9 9 8 7 7 7 7 7 7 7 6 5 5 4 2 2 4 5 6 7 7 7 7 8 8 8 8
8 5 6 9 9 8 10 10 10 9 8 8 8 8 8 9 10 9 8 8 7 7 7 6 6 7 8 7 6 5 4 1 2 4 5 6 6 7 6 5 5 7 7 9
8 9 8 10 9 8 8 8 8 9 9 9 10 10 9 8 10 9 8 7 7 7 7 7 6 7 7 6 6 5 4 2 2 4 5 5 5 5 5 5 4 4 5 8
Wind_Direction
184 200 224 221 223 243 265 271 270 272 281 261 255 261 262 254 249 247 245 239 228 227 228 210 202 199 197 194 191 191 193 189 184 186 187 188 192 191 191 192 190 188 187 185
1 246 241 240 242 249 256 266 274 287 285 281 270 267 262 246 243 239 236 235 234 233 228 209 200 197 199 197 195 194 195 192 191 193 192 192 186 189 190 188 190 192 191 189
228 254 259 246 247 250 257 250 259 275 306 286 277 273 253 250 240 239 237 234 232 229 224 214 203 202 202 201 198 197 196 195 194 191 181 172 166 165 183 193 197 197 195 193
259 268 267 252 245 234 267 252 263 268 281 279 257 277 261 238 240 240 239 236 233 231 226 219 209 205 205 206 202 198 196 196 194 189 187 185 191 197 200 196 196 193 194 194
267 276 255 251 249 228 244 278 275 265 259 273 250 258 274 230 236 240 238 236 234 230 224 220 214 210 210 206 202 200 196 196 194 192 193 194 199 202 190 182 186 190 194 195
266 274 254 245 265 238 243 324 304 274 228 250 228 220 269 222 226 237 238 239 235 231 227 226 221 213 212 207 202 199 196 198 195 195 196 199 201 195 185 189 193 194 195 196
311 288 267 247 289 272 157 121 318 266 214 242 212 214 250 241 236 234 238 244 245 235 229 230 224 215 212 207 202 199 198 200 197 197 200 202 203 199 198 196 196 193 194 198
317 296 270 260 219 231 214 178 196 230 231 268 227 231 252 257 254 255 255 262 269 260 244 235 226 217 214 211 206 201 200 202 198 199 203 204 203 202 204 199 196 197 200 201
273 279 296 290 267 193 210 211 217 259 280 263 245 268 293 308 311 300 293 292 280 272 266 255 242 223 216 214 210 206 203 203 201 201 203 204 202 202 203 198 196 199 199 193
221 279 286 296 313 236 214 178 154 209 246 255 266 258 256 300 304 316 324 316 307 308 306 293 267 237 224 219 214 209 207 204 202 201 202 204 203 203 202 196 197 199 196 187
188 254 297 314 231 224 184 175 199 220 232 229 265 266 241 283 320 314 311 317 316 317 311 307 296 269 231 221 213 209 207 205 202 200 201 201 203 202 199 199 199 198 192 187
214 219 271 264 263 243 199 193 172 198 260 233 241 269 269 312 336 330 326 329 326 318 311 307 303 299 270 231 221 211 206 205 205 202 201 201 201 199 198 200 199 194 191 190
207 212 307 326 324 339 240 209 195 223 234 233 236 264 303 335 334 333 331 330 328 327 327 328 327 317 295 258 237 223 211 205 204 200 199 199 197 196 199 200 195 192 190 188
245 206 212 231 246 262 275 266 246 225 237 247 244 267 296 317 322 325 328 325 325 322 325 329 327 326 314 285 253 237 223 209 199 197 198 198 198 198 199 197 192 190 189 187
183 243 242 252 261 260 261 265 255 235 229 237 257 265 279 292 296 302 312 318 321 325 329 329 327 324 323 310 289 260 237 217 199 193 198 200 198 195 192 190 189 187 186 188
188 247 260 265 257 260 265 259 251 246 241 243 258 268 276 283 292 302 309 317 319 320 323 326 327 325 322 315 302 284 254 228 201 194 198 195 189 188 188 188 184 182 184 184
215 218 255 271 284 285 261 245 237 235 232 234 250 262 288 293 297 297 303 312 313 316 316 316 317 316 313 308 300 280 253 222 201 196 192 188 183 185 187 182 179 182 183 181
206 207 234 270 301 250 252 237 236 240 247 245 261 286 291 285 284 281 289 302 310 316 314 313 312 310 309 308 307 293 257 204 194 190 186 182 179 180 177 177 181 182 180 182
202 204 218 227 252 270 281 265 225 227 251 243 261 290 304 301 298 292 311 313 304 304 304 302 297 296 302 304 307 301 266 202 186 187 186 183 179 176 175 178 180 179 176 179
188 195 209 216 238 254 261 266 262 193 256 257 258 280 301 323 294 287 316 313 312 312 312 310 307 306 310 307 311 298 259 202 202 200 193 183 176 174 178 180 175 168 170 174
175 197 215 224 240 261 262 266 144 191 247 279 271 277 285 271 259 280 297 302 305 306 309 313 317 313 310 311 313 305 267 233 224 194 179 175 172 172 172 167 163 160 159 162
193 196 207 204 225 249 250 164 194 232 260 269 273 270 273 282 288 293 296 296 301 309 314 320 320 314 315 318 317 309 281 259 205 167 168 168 162 158 157 157 157 158 160 163
209 201 199 204 224 244 222 221 239 244 257 265 264 271 273 285 289 295 296 297 301 306 312 318 312 313 317 320 316 296 293 275 183 162 168 164 156 157 160 161 160 159 162 165
245 211 211 244 255 258 259 261 265 254 254 261 265 271 273 275 279 286 291 293 297 303 306 314 316 317 317 318 314 299 296 266 182 173 169 162 160 157 158 160 162 165 170 168
222 202 220 246 263 277 266 255 258 262 265 272 278 275 270 272 275 276 280 286 291 297 300 302 304 307 307 313 313 315 311 275 183 173 168 164 162 159 157 156 165 170 179 177
201 204 216 243 238 238 259 259 260 267 272 274 278 280 276 264 268 273 275 277 284 290 294 297 300 305 309 314 312 312 309 273 190 178 171 166 161 157 154 147 126 114 155 159
Height
1438 1441 1439 1437 1437 1436 1436 1435 1432 1428 1425 1425 1422 1419 1416 1415 1416 1416 1415 1416 1417 1418 1421 1425 1429 1433 1438 1442 1446 1450 1455 1460 1465 1469 1473 1477 1481 1486 1490 1494 1498 1503 1506 1510
1441 1439 1434 1433 1434 1435 1435 1436 1433 1427 1424 1423 1420 1415 1411 1410 1410 1410 1410 1411 1412 1413 1416 1420 1423 1428 1432 1436 1440 1445 1450 1455 1459 1463 1467 1472 1477 1482 1486 1491 1495 1499 1503 1506
1439 1434 1431 1431 1432 1433 1432 1433 1431 1429 1425 1421 1421 1415 1408 1404 1404 1404 1405 1405 1406 1408 1410 1413 1417 1421 1425 1429 1433 1438 1443 1448 1453 1458 1464 1470 1475 1479 1483 1486 1489 1494 1498 1502
1437 1432 1431 1430 1430 1430 1430 1427 1427 1426 1429 1427 1422 1419 1406 1401 1400 1399 1399 1400 1400 1402 1405 1407 1411 1414 1418 1422 1427 1432 1437 1442 1448 1453 1458 1462 1466 1469 1473 1479 1484 1488 1493 1497
1435 1431 1430 1429 1427 1427 1427 1424 1425 1425 1427 1429 1424 1425 1409 1400 1397 1394 1394 1393 1394 1396 1399 1401 1404 1408 1412 1416 1420 1425 1431 1436 1442 1447 1451 1456 1460 1465 1470 1475 1479 1484 1488 1492
1433 1430 1429 1427 1425 1425 1425 1427 1425 1424 1427 1429 1420 1423 1410 1399 1392 1389 1388 1388 1388 1390 1393 1395 1399 1402 1406 1410 1414 1419 1424 1429 1435 1440 1445 1450 1454 1459 1464 1469 1473 1478 1482 1486
1435 1430 1427 1426 1426 1425 1426 1431 1434 1432 1430 1426 1413 1413 1403 1392 1388 1386 1385 1384 1384 1386 1388 1390 1392 1395 1399 1403 1408 1412 1417 1422 1428 1433 1438 1443 1448 1453 1457 1462 1467 1471 1475 1479
1444 1436 1428 1426 1426 1427 1425 1428 1434 1432 1426 1421 1412 1407 1397 1388 1384 1383 1383 1382 1382 1383 1384 1385 1387 1389 1392 1396 1401 1405 1410 1415 1420 1426 1431 1436 1441 1447 1451 1456 1461 1465 1469 1473
1444 1437 1427 1425 1424 1425 1425 1425 1425 1428 1425 1422 1412 1403 1394 1385 1383 1382 1381 1380 1379 1380 1380 1381 1382 1384 1386 1390 1394 1398 1403 1408 1413 1418 1423 1428 1434 1439 1444 1449 1454 1459 1463 1468
1443 1441 1431 1426 1425 1424 1425 1425 1427 1429 1426 1420 1410 1403 1396 1388 1384 1382 1381 1379 1378 1378 1378 1377 1378 1379 1381 1384 1388 1392 1396 1400 1405 1410 1416 1421 1426 1431 1437 1442 1447 1452 1457 1462
1441 1443 1435 1430 1427 1425 1427 1427 1427 1428 1426 1424 1415 1402 1388 1387 1385 1383 1381 1379 1378 1377 1376 1375 1375 1375 1377 1379 1382 1385 1389 1394 1399 1403 1409 1414 1419 1424 1430 1435 1440 1445 1450 1455
1439 1442 1439 1432 1424 1422 1423 1425 1427 1432 1431 1426 1421 1404 1386 1385 1384 1384 1381 1379 1377 1375 1374 1373 1372 1372 1372 1374 1376 1379 1383 1387 1392 1397 1402 1407 1412 1417 1423 1428 1433 1439 1444 1448
1438 1440 1440 1433 1430 1426 1424 1423 1424 1428 1429 1425 1417 1401 1384 1384 1383 1382 1381 1378 1375 1373 1371 1370 1369 1368 1368 1370 1372 1374 1377 1381 1386 1390 1395 1400 1405 1410 1415 1421 1426 1432 1437 1442
1433 1437 1439 1436 1430 1429 1427 1423 1422 1425 1425 1421 1412 1399 1389 1386 1384 1382 1379 1377 1374 1372 1370 1367 1366 1365 1365 1366 1367 1369 1372 1375 1379 1384 1388 1392 1397 1402 1408 1414 1419 1425 1430 1435
1433 1434 1433 1429 1425 1424 1422 1418 1417 1418 1416 1414 1403 1397 1390 1387 1385 1382 1379 1376 1373 1371 1368 1366 1364 1363 1362 1362 1363 1364 1366 1370 1373 1378 1381 1386 1391 1396 1401 1407 1412 1418 1423 1428
1432 1433 1430 1425 1419 1418 1414 1409 1407 1405 1404 1402 1398 1393 1388 1386 1383 1380 1377 1375 1372 1370 1368 1365 1363 1361 1360 1359 1359 1360 1362 1365 1368 1371 1375 1380 1385 1390 1395 1400 1406 1411 1417 1422
1431 1432 1430 1424 1418 1415 1410 1400 1398 1396 1394 1394 1392 1388 1385 1383 1380 1378 1375 1374 1371 1369 1366 1363 1360 1359 1358 1357 1356 1356 1358 1360 1363 1366 1370 1374 1379 1384 1389 1395 1400 1405 1410 1416
1427 1428 1427 1424 1422 1419 1400 1392 1392 1391 1390 1389 1387 1385 1383 1381 1377 1375 1374 1372 1369 1367 1364 1361 1359 1356 1355 1353 1353 1353 1354 1356 1358 1361 1365 1369 1374 1378 1384 1389 1394 1399 1405 1410
1419 1422 1424 1423 1421 1410 1396 1391 1390 1389 1387 1385 1384 1382 1380 1377 1374 1372 1370 1370 1368 1365 1363 1360 1357 1354 1352 1351 1350 1350 1350 1352 1354 1356 1360 1365 1369 1374 1378 1383 1388 1394 1399 1404
1416 1418 1421 1420 1417 1406 1393 1387 1384 1387 1387 1382 1380 1379 1378 1376 1376 1370 1369 1367 1364 1362 1360 1357 1354 1351 1349 1348 1347 1347 1347 1348 1350 1353 1356 1361 1365 1369 1374 1379 1384 1389 1394 1399
1415 1417 1417 1415 1412 1399 1388 1384 1384 1391 1385 1378 1377 1376 1376 1375 1373 1370 1367 1365 1363 1360 1357 1354 1351 1348 1347 1346 1345 1344 1344 1345 1347 1350 1353 1357 1361 1365 1370 1375 1379 1384 1389 1395
1408 1412 1412 1410 1408 1398 1382 1382 1384 1381 1377 1375 1374 1374 1372 1370 1368 1366 1364 1362 1359 1357 1354 1351 1348 1346 1345 1344 1342 1341 1341 1343 1345 1347 1349 1353 1357 1362 1366 1371 1375 1380 1385 1390
1400 1398 1397 1397 1390 1381 1378 1377 1376 1375 1374 1373 1371 1370 1369 1367 1365 1363 1360 1358 1356 1354 1351 1349 1346 1344 1342 1341 1340 1339 1339 1340 1341 1343 1346 1350 1354 1358 1363 1367 1371 1376 1380 1384
1392 1389 1390 1388 1380 1376 1374 1373 1372 1371 1370 1369 1368 1366 1365 1363 1361 1359 1357 1354 1352 1350 1348 1346 1344 1341 1339 1338 1337 1337 1337 1338 1339 1340 1343 1347 1350 1354 1358 1363 1367 1371 1375 1379
1385 1385 1384 1381 1374 1371 1368 1367 1367 1366 1365 1364 1362 1361 1360 1358 1356 1354 1352 1350 1348 1346 1345 1343 1341 1338 1336 1335 1333 1333 1334 1335 1336 1338 1340 1344 1347 1351 1354 1358 1363 1367 1371 1375
1375 1377 1377 1371 1367 1367 1363 1361 1361 1360 1359 1358 1357 1354 1353 1353 1350 1349 1347 1346 1344 1342 1340 1339 1337 1335 1333 1331 1330 1331 1331 1332 1333 1335 1337 1340 1343 1347 1351 1355 1359 1364 1368 1372